QFA8DP YBCS-YBSG

Flight info

Callsign QFA8DP
Flight time 0h 53m
Altitude 20000
Route CS W309 COE
Aircraft A320/M-SDE3FGHIRWY/LB1

Departure

Time 2026-05-07 13:39
Airport Cairns International Airport (YBCS)

Arrival

Time 2026-05-07 14:33
Airport RAAF Base Scherger (YBSG)
Time Latitude Longitude Altitude Speed Heading
2026-05-07 13:20 -16.87666 145.75242 13 ft 0 kts 67°
2026-05-07 13:33 -16.87673 145.75225 12 ft 4 kts 62°
2026-05-07 13:34 -16.87687 145.75202 12 ft 4 kts 50°
2026-05-07 13:34 -16.87708 145.75181 12 ft 0 kts 38°
2026-05-07 13:36 -16.87705 145.75181 12 ft 1 kts 19°
2026-05-07 13:36 -16.87697 145.75170 12 ft 5 kts 309°
2026-05-07 13:37 -16.87655 145.75109 13 ft 14 kts 289°
2026-05-07 13:37 -16.87614 145.75021 13 ft 16 kts 334°
2026-05-07 13:37 -16.87510 145.74972 15 ft 17 kts 335°
2026-05-07 13:37 -16.87391 145.74919 -5 ft 21 kts 338°
2026-05-07 13:38 -16.87246 145.74860 -9 ft 24 kts 338°
2026-05-07 13:38 -16.87094 145.74792 -9 ft 21 kts 330°
2026-05-07 13:38 -16.87068 145.74663 -13 ft 22 kts 241°
2026-05-07 13:38 -16.87191 145.74633 -11 ft 23 kts 157°
2026-05-07 13:39 -16.87451 145.74752 -4 ft 71 kts 156°
2026-05-07 13:39 -16.88100 145.75045 12 ft 130 kts 157°
2026-05-07 13:39 -16.89005 145.75448 409 ft 138 kts 156°
2026-05-07 13:39 -16.89887 145.75848 1020 ft 141 kts 156°
2026-05-07 13:40 -16.90636 145.76494 1582 ft 144 kts 120°
2026-05-07 13:40 -16.90778 145.77554 1952 ft 163 kts 75°
2026-05-07 13:40 -16.89979 145.78488 2246 ft 193 kts 25°
2026-05-07 13:40 -16.88555 145.78521 2564 ft 225 kts 341°
2026-05-07 13:41 -16.87200 145.77563 2921 ft 248 kts 315°
2026-05-07 13:41 -16.85967 145.76178 3358 ft 272 kts 310°
2026-05-07 13:41 -16.84692 145.74611 3957 ft 291 kts 311°
2026-05-07 13:41 -16.83278 145.73061 4860 ft 298 kts 316°
2026-05-07 13:42 -16.81762 145.71577 5832 ft 299 kts 319°
2026-05-07 13:42 -16.80199 145.70158 6885 ft 297 kts 320°
2026-05-07 13:42 -16.78615 145.68773 7820 ft 298 kts 320°
2026-05-07 13:42 -16.77012 145.67391 8696 ft 300 kts 321°
2026-05-07 13:43 -16.75400 145.66005 9586 ft 301 kts 321°
2026-05-07 13:43 -16.73780 145.64612 10338 ft 306 kts 321°
2026-05-07 13:43 -16.72078 145.63146 10548 ft 329 kts 321°
2026-05-07 13:43 -16.70282 145.61591 11005 ft 339 kts 321°
2026-05-07 13:44 -16.68481 145.60029 11676 ft 342 kts 320°
2026-05-07 13:44 -16.66650 145.58437 12413 ft 343 kts 320°
2026-05-07 13:44 -16.64815 145.56842 13120 ft 345 kts 320°
2026-05-07 13:44 -16.62964 145.55233 13807 ft 347 kts 320°
2026-05-07 13:45 -16.61104 145.53619 14427 ft 349 kts 320°
2026-05-07 13:45 -16.59232 145.51994 15028 ft 351 kts 320°
2026-05-07 13:45 -16.57350 145.50360 15638 ft 353 kts 320°
2026-05-07 13:45 -16.55451 145.48709 16266 ft 355 kts 320°
2026-05-07 13:46 -16.53549 145.47056 16888 ft 357 kts 320°
2026-05-07 13:46 -16.51635 145.45393 17506 ft 359 kts 320°
2026-05-07 13:46 -16.49709 145.43723 18093 ft 362 kts 320°
2026-05-07 13:46 -16.47763 145.42041 18644 ft 364 kts 320°
2026-05-07 13:47 -16.45807 145.40353 19164 ft 366 kts 320°
2026-05-07 13:47 -16.43838 145.38651 19692 ft 369 kts 320°
2026-05-07 13:47 -16.41863 145.36940 19955 ft 370 kts 320°
2026-05-07 13:47 -16.39886 145.35228 20027 ft 370 kts 320°
2026-05-07 13:48 -16.37909 145.33517 20042 ft 369 kts 320°
2026-05-07 13:48 -16.35930 145.31807 20043 ft 369 kts 320°
2026-05-07 13:48 -16.33925 145.30077 20046 ft 384 kts 320°
2026-05-07 13:48 -16.31820 145.28260 20046 ft 401 kts 320°
2026-05-07 13:49 -16.29625 145.26362 20047 ft 417 kts 320°
2026-05-07 13:49 -16.27367 145.24402 20038 ft 430 kts 320°
2026-05-07 13:49 -16.25043 145.22389 20046 ft 437 kts 320°
2026-05-07 13:49 -16.22694 145.20359 20037 ft 439 kts 320°
2026-05-07 13:50 -16.20341 145.18331 20036 ft 439 kts 320°
2026-05-07 13:50 -16.17987 145.16303 20035 ft 439 kts 320°
2026-05-07 13:50 -16.15631 145.14272 20037 ft 440 kts 320°
2026-05-07 13:50 -16.13269 145.12237 20038 ft 441 kts 320°
2026-05-07 13:51 -16.10903 145.10195 20043 ft 441 kts 320°
2026-05-07 13:51 -16.08536 145.08154 20033 ft 441 kts 320°
2026-05-07 13:51 -16.06173 145.06119 20028 ft 441 kts 320°
2026-05-07 13:51 -16.03809 145.04086 20026 ft 441 kts 320°
2026-05-07 13:52 -16.01440 145.02048 20025 ft 441 kts 320°
2026-05-07 13:52 -15.99078 145.00013 20020 ft 441 kts 320°
2026-05-07 13:52 -15.96718 144.97980 20028 ft 441 kts 320°
2026-05-07 13:52 -15.94383 144.95970 20023 ft 441 kts 320°
2026-05-07 13:53 -15.92017 144.93934 20020 ft 441 kts 320°
2026-05-07 13:53 -15.89649 144.91897 20018 ft 445 kts 320°
2026-05-07 13:53 -15.87259 144.89844 20022 ft 447 kts 320°
2026-05-07 13:53 -15.84861 144.87787 20020 ft 447 kts 320°
2026-05-07 13:54 -15.82459 144.85725 20007 ft 447 kts 320°
2026-05-07 13:54 -15.80058 144.83664 20010 ft 448 kts 320°
2026-05-07 13:54 -15.77656 144.81604 20009 ft 448 kts 320°
2026-05-07 13:54 -15.75248 144.79541 20007 ft 448 kts 320°
2026-05-07 13:55 -15.72839 144.77479 20010 ft 449 kts 320°
2026-05-07 13:55 -15.70433 144.75417 20009 ft 448 kts 320°
2026-05-07 13:55 -15.68026 144.73356 20004 ft 448 kts 320°
2026-05-07 13:55 -15.65624 144.71296 20003 ft 447 kts 320°
2026-05-07 13:56 -15.63233 144.69242 19990 ft 447 kts 320°
2026-05-07 13:56 -15.60840 144.67187 19992 ft 446 kts 320°
2026-05-07 13:56 -15.58443 144.65135 19989 ft 446 kts 320°
2026-05-07 13:56 -15.56049 144.63091 19982 ft 446 kts 320°
2026-05-07 13:57 -15.53649 144.61045 19975 ft 446 kts 320°
2026-05-07 13:57 -15.51254 144.59002 19972 ft 446 kts 320°
2026-05-07 13:57 -15.48859 144.56953 19971 ft 446 kts 320°
2026-05-07 13:57 -15.46466 144.54905 19965 ft 446 kts 320°
2026-05-07 13:58 -15.44078 144.52858 19964 ft 446 kts 320°
2026-05-07 13:58 -15.41684 144.50804 19965 ft 447 kts 320°
2026-05-07 13:58 -15.39317 144.48779 19968 ft 447 kts 320°
2026-05-07 13:58 -15.36920 144.46727 19969 ft 447 kts 320°
2026-05-07 13:59 -15.34523 144.44677 19964 ft 447 kts 320°
2026-05-07 13:59 -15.32123 144.42628 19962 ft 447 kts 321°
2026-05-07 13:59 -15.29719 144.40582 19960 ft 447 kts 321°
2026-05-07 13:59 -15.27316 144.38543 19966 ft 447 kts 321°
2026-05-07 14:00 -15.24906 144.36499 19969 ft 447 kts 321°
2026-05-07 14:00 -15.22499 144.34449 19969 ft 448 kts 320°
2026-05-07 14:00 -15.20102 144.32400 19972 ft 448 kts 320°
2026-05-07 14:00 -15.17700 144.30349 19974 ft 447 kts 321°
2026-05-07 14:01 -15.15291 144.28298 19974 ft 447 kts 321°
2026-05-07 14:01 -15.12888 144.26255 19968 ft 448 kts 321°
2026-05-07 14:01 -15.10477 144.24207 19968 ft 448 kts 321°
2026-05-07 14:01 -15.08071 144.22162 19969 ft 448 kts 321°
2026-05-07 14:02 -15.05658 144.20112 19969 ft 448 kts 320°
2026-05-07 14:02 -15.03250 144.18064 19971 ft 447 kts 320°
2026-05-07 14:02 -15.00844 144.16018 19968 ft 448 kts 320°
2026-05-07 14:02 -14.98443 144.13976 19968 ft 448 kts 320°
2026-05-07 14:03 -14.96035 144.11930 19968 ft 448 kts 320°
2026-05-07 14:03 -14.93626 144.09882 19968 ft 448 kts 320°
2026-05-07 14:03 -14.91219 144.07838 19968 ft 448 kts 321°
2026-05-07 14:03 -14.88809 144.05802 19967 ft 448 kts 321°
2026-05-07 14:04 -14.86390 144.03766 19965 ft 448 kts 321°
2026-05-07 14:04 -14.83967 144.01728 19967 ft 448 kts 321°
2026-05-07 14:04 -14.81553 143.99698 19967 ft 448 kts 321°
2026-05-07 14:04 -14.79141 143.97665 19964 ft 448 kts 321°
2026-05-07 14:05 -14.76726 143.95623 19967 ft 447 kts 321°
2026-05-07 14:05 -14.74319 143.93589 19962 ft 447 kts 321°
2026-05-07 14:05 -14.71906 143.91555 19961 ft 447 kts 321°
2026-05-07 14:05 -14.69498 143.89530 19963 ft 447 kts 321°
2026-05-07 14:06 -14.67084 143.87499 19962 ft 447 kts 321°
2026-05-07 14:06 -14.64676 143.85471 19962 ft 447 kts 321°
2026-05-07 14:06 -14.62289 143.83463 19962 ft 447 kts 321°
2026-05-07 14:06 -14.59843 143.81406 19964 ft 447 kts 321°
2026-05-07 14:07 -14.57464 143.79406 19962 ft 447 kts 321°
2026-05-07 14:07 -14.55049 143.77373 19962 ft 448 kts 321°
2026-05-07 14:07 -14.52634 143.75338 19966 ft 448 kts 321°
2026-05-07 14:07 -14.50222 143.73307 19966 ft 448 kts 321°
2026-05-07 14:08 -14.47803 143.71279 19964 ft 448 kts 321°
2026-05-07 14:08 -14.45386 143.69255 19962 ft 448 kts 321°
2026-05-07 14:08 -14.42968 143.67227 19963 ft 448 kts 321°
2026-05-07 14:08 -14.40549 143.65194 19963 ft 448 kts 321°
2026-05-07 14:09 -14.38124 143.63157 19965 ft 449 kts 321°
2026-05-07 14:09 -14.35706 143.61126 19966 ft 449 kts 321°
2026-05-07 14:09 -14.33282 143.59095 19964 ft 449 kts 321°
2026-05-07 14:09 -14.30854 143.57061 19962 ft 449 kts 321°
2026-05-07 14:10 -14.28432 143.55030 19958 ft 449 kts 321°
2026-05-07 14:10 -14.26007 143.52997 19965 ft 449 kts 321°
2026-05-07 14:10 -14.23604 143.50982 19966 ft 449 kts 321°
2026-05-07 14:10 -14.21177 143.48951 19968 ft 449 kts 321°
2026-05-07 14:11 -14.18755 143.46926 19965 ft 449 kts 321°
2026-05-07 14:11 -14.16328 143.44895 19968 ft 449 kts 321°
2026-05-07 14:11 -14.13906 143.42866 19966 ft 448 kts 321°
2026-05-07 14:11 -14.11486 143.40839 19961 ft 448 kts 321°
2026-05-07 14:12 -14.09065 143.38808 19964 ft 448 kts 321°
2026-05-07 14:12 -14.06641 143.36776 19961 ft 449 kts 321°
2026-05-07 14:12 -14.04221 143.34757 19964 ft 449 kts 321°
2026-05-07 14:12 -14.01790 143.32730 19962 ft 449 kts 321°
2026-05-07 14:13 -13.99361 143.30708 19961 ft 449 kts 321°
2026-05-07 14:13 -13.96933 143.28685 19962 ft 449 kts 321°
2026-05-07 14:13 -13.94534 143.26682 19964 ft 449 kts 321°
2026-05-07 14:13 -13.92100 143.24647 19963 ft 449 kts 321°
2026-05-07 14:14 -13.89670 143.22618 19962 ft 449 kts 321°
2026-05-07 14:14 -13.87240 143.20586 19962 ft 449 kts 321°
2026-05-07 14:14 -13.84813 143.18560 19964 ft 449 kts 321°
2026-05-07 14:14 -13.82385 143.16535 19964 ft 449 kts 321°
2026-05-07 14:15 -13.79950 143.14508 19967 ft 449 kts 321°
2026-05-07 14:15 -13.77515 143.12482 19964 ft 450 kts 321°
2026-05-07 14:15 -13.75115 143.10483 19963 ft 450 kts 321°
2026-05-07 14:15 -13.72689 143.08453 19962 ft 450 kts 321°
2026-05-07 14:16 -13.70251 143.06412 19889 ft 452 kts 321°
2026-05-07 14:16 -13.67816 143.04376 19602 ft 447 kts 321°
2026-05-07 14:16 -13.65458 143.02403 19375 ft 426 kts 321°
2026-05-07 14:16 -13.63208 143.00521 19151 ft 408 kts 321°
2026-05-07 14:17 -13.61040 142.98710 18923 ft 395 kts 321°
2026-05-07 14:17 -13.58931 142.96949 18700 ft 384 kts 321°
2026-05-07 14:17 -13.56888 142.95241 18477 ft 373 kts 321°
2026-05-07 14:17 -13.55571 142.94140 18329 ft 365 kts 321°
2026-05-07 14:18 -13.53623 142.92511 18090 ft 355 kts 321°
2026-05-07 14:18 -13.51733 142.90934 17841 ft 346 kts 321°
2026-05-07 14:18 -13.49883 142.89393 17577 ft 341 kts 321°
2026-05-07 14:18 -13.48037 142.87858 17324 ft 339 kts 321°
2026-05-07 14:19 -13.46205 142.86334 17075 ft 338 kts 321°
2026-05-07 14:19 -13.44381 142.84812 16820 ft 338 kts 321°
2026-05-07 14:19 -13.42556 142.83287 16574 ft 337 kts 321°
2026-05-07 14:19 -13.40736 142.81765 16325 ft 337 kts 321°
2026-05-07 14:20 -13.38920 142.80249 16086 ft 336 kts 321°
2026-05-07 14:20 -13.37109 142.78742 15852 ft 335 kts 322°
2026-05-07 14:20 -13.35304 142.77239 15610 ft 333 kts 322°
2026-05-07 14:20 -13.33506 142.75742 15373 ft 333 kts 321°
2026-05-07 14:21 -13.31709 142.74246 15138 ft 332 kts 322°
2026-05-07 14:21 -13.29914 142.72753 14905 ft 331 kts 322°
2026-05-07 14:21 -13.28129 142.71267 14674 ft 330 kts 322°
2026-05-07 14:21 -13.26346 142.69784 14447 ft 330 kts 322°
2026-05-07 14:22 -13.23992 142.67823 14146 ft 329 kts 322°
2026-05-07 14:22 -13.22791 142.66825 13991 ft 328 kts 322°
2026-05-07 14:22 -13.21017 142.65350 13763 ft 327 kts 322°
2026-05-07 14:22 -13.19276 142.63899 13514 ft 327 kts 322°
2026-05-07 14:23 -13.17494 142.62414 13258 ft 326 kts 322°
2026-05-07 14:23 -13.15752 142.60967 13001 ft 325 kts 322°
2026-05-07 14:23 -13.13995 142.59507 12763 ft 325 kts 322°
2026-05-07 14:23 -13.12239 142.58051 12518 ft 324 kts 322°
2026-05-07 14:24 -13.10487 142.56596 12267 ft 324 kts 322°
2026-05-07 14:24 -13.08731 142.55140 12025 ft 325 kts 322°
2026-05-07 14:24 -13.06982 142.53682 11784 ft 325 kts 322°
2026-05-07 14:24 -13.05226 142.52220 11535 ft 322 kts 322°
2026-05-07 14:25 -13.03495 142.50783 11155 ft 320 kts 322°
2026-05-07 14:25 -13.01765 142.49349 10748 ft 319 kts 322°
2026-05-07 14:25 -13.00036 142.47916 10316 ft 320 kts 322°
2026-05-07 14:25 -12.98316 142.46489 10074 ft 314 kts 322°
2026-05-07 14:26 -12.96638 142.45092 9897 ft 306 kts 322°
2026-05-07 14:26 -12.94986 142.43718 9581 ft 307 kts 321°
2026-05-07 14:26 -12.93326 142.42342 9209 ft 306 kts 321°
2026-05-07 14:26 -12.91673 142.40973 8790 ft 307 kts 322°
2026-05-07 14:27 -12.90024 142.39608 8450 ft 304 kts 321°
2026-05-07 14:27 -12.88360 142.38233 7928 ft 309 kts 321°
2026-05-07 14:27 -12.86674 142.36841 7451 ft 312 kts 321°
2026-05-07 14:27 -12.84982 142.35437 7012 ft 313 kts 321°
2026-05-07 14:28 -12.83289 142.34031 6571 ft 314 kts 321°
2026-05-07 14:28 -12.81588 142.32623 6115 ft 315 kts 321°
2026-05-07 14:28 -12.79890 142.31213 5669 ft 314 kts 321°
2026-05-07 14:28 -12.78191 142.29802 5229 ft 314 kts 321°
2026-05-07 14:29 -12.76495 142.28397 4793 ft 314 kts 321°
2026-05-07 14:29 -12.74791 142.26988 4343 ft 314 kts 321°
2026-05-07 14:29 -12.73092 142.25582 3898 ft 314 kts 321°
2026-05-07 14:29 -12.71526 142.24034 3457 ft 313 kts 304°
2026-05-07 14:30 -12.70493 142.22121 3024 ft 300 kts 297°
2026-05-07 14:30 -12.69466 142.20310 2615 ft 287 kts 301°
2026-05-07 14:30 -12.68434 142.18662 2224 ft 263 kts 303°
2026-05-07 14:30 -12.67485 142.17182 1865 ft 241 kts 305°
2026-05-07 14:31 -12.66605 142.15800 1580 ft 223 kts 305°
2026-05-07 14:31 -12.65800 142.14516 1253 ft 206 kts 304°
2026-05-07 14:31 -12.65055 142.13314 974 ft 192 kts 304°
2026-05-07 14:31 -12.64393 142.12232 732 ft 169 kts 303°
2026-05-07 14:32 -12.63803 142.11266 480 ft 153 kts 303°
2026-05-07 14:32 -12.63250 142.10362 285 ft 147 kts 303°
2026-05-07 14:32 -12.62715 142.09506 147 ft 126 kts 302°
2026-05-07 14:32 -12.62413 142.09002 146 ft 64 kts 302°
2026-05-07 14:33 -12.62217 142.08676 143 ft 47 kts 301°
2026-05-07 14:33 -12.62043 142.08399 143 ft 42 kts 301°
2026-05-07 14:33 -12.62022 142.08159 142 ft 33 kts 272°
2026-05-07 14:33 -12.62045 142.07934 140 ft 31 kts 261°
2026-05-07 14:34 -12.62082 142.07716 139 ft 24 kts 261°
2026-05-07 14:34 -12.62141 142.07671 139 ft 12 kts 165°
2026-05-07 14:34 -12.62205 142.07702 139 ft 0 kts 154°